This is the latest recevied weather packets stored in our database for station/object K0APR. If no packets are shown the sender has not sent any weather packets the latest 10 day(s).
| Time | Temp. | Humidity | Pressure | Rain* | Wind** | Luminosity | Snow |
|---|---|---|---|---|---|---|---|
| 1777467048 | 4.44° C | 81% | 1020 hPa | 0 mm | - | 112 W/m² | - |
| 1777466746 | 4.44° C | 82% | 1020 hPa | 0 mm | - | 87 W/m² | - |
| 1777466443 | 3.89° C | 83% | 1020 hPa | 0 mm | - | 73 W/m² | - |
| 1777466139 | 3.89° C | 84% | 1020 hPa | 0 mm | - | 58 W/m² | - |
| 1777465836 | 3.33° C | 85% | 1020 hPa | 0 mm | - | 50 W/m² | - |
| 1777465531 | 3.33° C | 86% | 1020 hPa | 0 mm | - | 46 W/m² | - |
| 1777465226 | 3.33° C | 86% | 1019.6 hPa | 0 mm | - | 42 W/m² | - |
| 1777464921 | 3.33° C | 87% | 1020 hPa | 0 mm | - | 39 W/m² | - |
| 1777464617 | 2.78° C | 88% | 1020 hPa | 0 mm | - | 35 W/m² | - |
| 1777464313 | 2.78° C | 89% | 1020 hPa | 0 mm | - | 31 W/m² | - |
| 1777464009 | 2.78° C | 90% | 1020 hPa | 0 mm | - | 27 W/m² | - |
| 1777463703 | 2.78° C | 91% | 1019.6 hPa | 0 mm | - | 23 W/m² | - |
| 1777463398 | 2.22° C | 91% | 1019.6 hPa | 0 mm | - | 19 W/m² | - |
| 1777463095 | 2.22° C | 92% | 1019.6 hPa | 0 mm | - | 16 W/m² | - |
| 1777462791 | 2.22° C | 93% | 1019.6 hPa | 0 mm | - | 12 W/m² | - |
| 1777462486 | 1.67° C | 93% | 1019.6 hPa | 0 mm | - | 9 W/m² | - |
| 1777462183 | 1.67° C | 93% | 1019.3 hPa | 0 mm | - | 6 W/m² | - |
| 1777461879 | 1.67° C | 93% | 1019.6 hPa | 0 mm | - | 5 W/m² | - |
| 1777461576 | 1.67° C | 92% | 1019.3 hPa | 0 mm | - | 2 W/m² | - |
| 1777461271 | 1.67° C | 92% | 1019.3 hPa | 0 mm | - | 2 W/m² | - |
| 1777460967 | 1.67° C | 92% | 1019.3 hPa | 0 mm | - | 0 W/m² | - |
| 1777460663 | 2.22° C | 92% | 1019.3 hPa | 0 mm | - | 0 W/m² | - |
| 1777460359 | 2.22° C | 92% | 1019.3 hPa | 0 mm | - | 0 W/m² | - |
| 1777460055 | 2.22° C | 92% | 1019.3 hPa | 0 mm | - | 0 W/m² | - |
| 1777459752 | 2.78° C | 92% | 1019.3 hPa | 0 mm | - | 0 W/m² | - |
* Rain latest hour (hover to see other rain measurements)
** Current wind speed in m/s (hover to see current wind gust speed)